period_start,C,m1,H,J0,J1,J2,J3,J4,J5,JA,JB,JC,JD,JJ,JK,JN,#
2016-03-25 00:01:25,0.13,1.38,0.00,15.09,19.18,22.80,15.03,50.64,1018.56,2067.62,3052.75,2804.23,3172.23,599.99,613.45,13.19,0000 0000 0000 0000 000000
2016-03-25 00:06:26,0.10,1.38,0.00,15.11,19.19,22.80,15.01,50.65,1018.55,2067.27,3049.86,2802.35,3170.04,600.09,613.61,13.24,0000 0000 0000 0000 000000
2016-03-25 00:11:27,0.15,1.39,0.00,15.14,19.20,22.83,15.03,50.67,1018.49,2067.30,3047.01,2800.47,3167.86,599.88,613.29,13.29,0000 0000 0000 0000 000000
2016-03-25 00:16:29,0.13,1.40,0.00,15.16,19.22,22.82,15.05,50.75,1018.23,2067.37,3044.32,2798.66,3165.71,599.93,613.10,13.34,0000 0000 0000 0000 000000
2016-03-25 00:21:30,0.13,1.41,0.00,15.18,19.23,22.84,15.04,50.72,1018.11,2067.10,3041.49,2796.72,3163.49,600.30,613.31,13.39,0000 0000 0000 0000 000000
2016-03-25 00:26:32,0.15,1.41,0.00,15.19,19.24,22.86,15.02,50.78,1018.10,2067.05,3038.68,2794.82,3161.28,600.48,613.57,13.44,0000 0000 0000 0000 000000
2016-03-25 00:31:33,0.14,1.42,0.00,15.22,19.26,22.85,14.89,50.82,1018.09,2067.03,3035.79,2792.88,3159.05,599.72,612.77,13.49,0000 0000 0000 0000 000000
2016-03-25 00:36:34,0.14,1.43,0.00,15.22,19.28,22.88,15.05,50.90,1018.08,2067.01,3033.07,2791.03,3156.85,600.12,613.00,13.54,0000 0000 0000 0000 000000
2016-03-25 00:41:36,0.14,1.44,0.00,15.23,19.29,22.90,15.03,50.73,1018.08,2067.01,3030.33,2789.17,3154.70,599.93,612.80,13.59,0000 0000 0000 0000 000000
2016-03-25 00:46:37,0.15,1.44,0.00,15.27,19.32,22.92,14.97,50.77,1018.08,2067.00,3027.49,2787.26,3152.47,600.18,613.12,13.65,0000 0000 0000 0000 000000
2016-03-25 00:51:39,0.14,1.45,0.00,15.29,19.33,22.94,15.00,50.85,1018.08,2067.00,3024.76,2785.39,3150.29,599.73,612.65,13.70,0000 0000 0000 0000 000000
2016-03-25 00:56:40,0.14,1.46,0.00,15.30,19.34,22.95,14.99,50.79,1018.08,2067.00,3022.05,2783.59,3148.15,599.67,612.49,13.75,0000 0000 0000 0000 000000
2016-03-25 01:01:41,0.14,1.46,0.00,15.33,19.37,22.96,15.00,50.77,1018.08,2067.00,3019.26,2781.65,3146.01,599.90,612.58,13.80,0000 0000 0000 0000 000000
2016-03-25 01:06:43,0.15,1.47,0.00,15.33,19.39,22.99,14.99,50.77,1018.08,2066.99,3016.38,2779.71,3143.77,600.05,612.82,13.85,0000 0000 0000 0000 000000
2016-03-25 01:11:44,0.14,1.48,0.00,15.34,19.41,23.01,14.96,50.76,1018.02,2066.97,3013.56,2777.77,3141.51,599.89,612.61,13.90,0000 0000 0000 0000 000000
2016-03-25 01:16:45,0.14,1.49,0.00,15.37,19.43,23.03,14.99,50.73,1017.95,2066.97,3010.86,2775.93,3139.35,599.81,612.30,13.95,0000 0000 0000 0000 000000
2016-03-25 01:21:46,0.15,1.50,0.00,15.39,19.46,23.05,14.97,50.73,1017.76,2066.93,3008.12,2773.96,3137.10,599.97,612.50,14.00,0000 0000 0000 0000 000000
2016-03-25 01:26:47,0.11,1.50,0.00,15.40,19.48,23.05,15.06,50.82,1017.68,2066.66,3005.43,2772.04,3134.93,600.19,612.57,14.05,0000 0000 0000 0000 000000
2016-03-25 01:31:49,0.11,1.51,0.00,15.42,19.51,23.07,15.01,50.86,1017.63,2066.22,3002.56,2770.10,3132.71,599.87,612.18,14.10,0000 0000 0000 0000 000000
2016-03-25 01:36:50,0.13,1.51,0.00,15.45,19.53,23.09,15.02,50.83,1017.61,2066.04,2999.64,2768.13,3130.44,599.87,612.04,14.15,0000 0000 0000 0000 000000
2016-03-25 01:41:52,0.15,1.52,0.00,15.48,19.56,23.11,14.95,50.85,1017.60,2066.02,2996.78,2766.16,3128.21,600.11,612.32,14.20,0000 0000 0000 0000 000000
2016-03-25 01:46:53,0.14,1.53,0.00,15.48,19.57,23.13,14.99,50.79,1017.60,2066.01,2993.99,2764.24,3126.01,600.31,612.47,14.25,0000 0000 0000 0000 000000
2016-03-25 01:51:54,0.14,1.54,0.00,15.51,19.59,23.18,15.05,50.88,1017.61,2066.00,2991.23,2762.43,3123.85,600.14,612.27,14.30,0000 0000 0000 0000 000000
2016-03-25 01:56:55,0.15,1.54,0.00,15.53,19.62,23.19,15.02,50.73,1017.62,2066.00,2988.44,2760.50,3121.64,600.02,612.09,14.35,0000 0000 0000 0000 000000
2016-03-25 02:01:57,0.15,1.55,0.00,15.53,19.64,23.23,14.99,50.84,1017.61,2065.99,2985.55,2758.51,3119.36,599.89,611.94,14.40,0000 0000 0000 0000 000000
2016-03-25 02:06:58,0.15,1.56,0.00,15.55,19.66,23.24,15.00,50.69,1017.59,2065.95,2982.76,2756.65,3117.18,600.00,612.02,14.45,0000 0000 0000 0000 000000
2016-03-25 02:11:59,0.15,1.57,0.00,15.56,19.68,23.23,14.95,50.65,1017.59,2065.95,2979.90,2754.74,3114.93,599.59,611.76,14.50,0000 0000 0000 0000 000000
2016-03-25 02:17:01,0.14,1.57,0.00,15.58,19.70,23.24,14.98,50.68,1017.60,2065.94,2977.10,2752.78,3112.71,600.09,612.02,14.55,0000 0000 0000 0000 000000
2016-03-25 02:22:03,0.13,1.58,0.00,15.59,19.72,23.25,14.98,50.81,1017.59,2065.92,2974.33,2751.06,3110.51,600.00,611.89,14.60,0000 0000 0000 0000 000000
2016-03-25 02:27:04,0.13,1.59,0.00,15.62,19.74,23.29,14.96,50.76,1017.60,2065.73,2971.48,2749.19,3108.25,599.46,611.39,14.65,0000 0000 0000 0000 000000
2016-03-25 02:32:06,0.12,1.60,0.00,15.64,19.77,23.31,14.93,50.73,1017.59,2065.50,2968.62,2747.23,3106.02,599.89,611.68,14.70,0000 0000 0000 0000 000000
2016-03-25 02:37:07,0.13,1.60,0.00,15.64,19.79,23.34,14.97,50.76,1017.59,2065.25,2965.75,2745.30,3103.72,600.11,611.92,14.75,0000 0000 0000 0000 000000
2016-03-25 02:42:08,0.14,1.61,0.00,15.67,19.81,23.33,15.02,50.76,1017.60,2065.04,2962.89,2743.32,3101.44,599.93,611.73,14.80,0000 0000 0000 0000 000000
2016-03-25 02:47:09,0.16,1.62,0.00,15.70,19.83,23.35,14.95,50.64,1017.59,2065.02,2959.98,2741.34,3099.12,600.04,611.73,14.85,0000 0000 0000 0000 000000
2016-03-25 02:52:11,0.16,1.62,0.00,15.73,19.86,23.38,14.93,50.57,1017.59,2065.00,2957.03,2739.30,3096.83,599.82,611.49,14.90,0000 0000 0000 0000 000000
2016-03-25 02:57:12,0.15,1.63,0.00,15.75,19.88,23.39,14.97,50.67,1017.59,2065.00,2954.15,2737.36,3094.57,599.58,611.15,14.95,0000 0000 0000 0000 000000
2016-03-25 03:02:13,0.15,1.64,0.00,15.79,19.90,23.41,15.02,50.73,1017.59,2065.00,2951.32,2735.44,3092.31,600.44,611.94,15.00,0000 0000 0000 0000 000000
2016-03-25 03:07:14,0.16,1.65,0.00,15.83,19.93,23.43,14.96,50.60,1017.59,2065.00,2948.42,2733.45,3090.03,600.04,611.56,15.05,0000 0000 0000 0000 000000
2016-03-25 03:12:16,0.15,1.66,0.00,15.83,19.95,23.45,14.94,50.45,1017.60,2064.96,2945.62,2731.54,3087.77,600.20,611.62,15.10,0000 0000 0000 0000 000000
2016-03-25 03:17:17,0.13,1.66,0.00,15.87,19.98,23.48,14.98,50.64,1017.60,2064.79,2942.92,2729.57,3085.51,599.90,611.22,15.15,0000 0000 0000 0000 000000
2016-03-25 03:22:19,0.12,1.67,0.00,15.89,20.00,23.51,14.99,50.73,1017.60,2064.53,2940.20,2727.74,3083.34,600.03,611.26,15.20,0000 0000 0000 0000 000000
2016-03-25 03:27:20,0.12,1.68,0.00,15.92,20.03,23.51,14.98,50.82,1017.59,2064.15,2937.38,2725.79,3081.10,600.17,611.41,15.25,0000 0000 0000 0000 000000
2016-03-25 03:32:21,0.15,1.68,0.00,15.95,20.06,23.54,14.96,50.65,1017.62,2064.03,2934.56,2723.86,3078.83,600.14,611.35,15.30,0000 0000 0000 0000 000000
2016-03-25 03:37:23,0.15,1.69,0.00,15.99,20.09,23.58,14.96,50.65,1017.63,2064.02,2931.76,2721.90,3076.58,600.12,611.14,15.35,0000 0000 0000 0000 000000
2016-03-25 03:42:24,0.15,1.70,0.00,16.02,20.12,23.60,14.96,50.69,1017.61,2064.00,2928.94,2719.97,3074.31,599.98,611.12,15.40,0000 0000 0000 0000 000000
2016-03-25 03:47:25,0.16,1.71,0.00,16.05,20.14,23.63,14.97,50.70,1017.61,2064.00,2926.04,2717.92,3072.01,599.96,610.83,15.45,0000 0000 0000 0000 000000
2016-03-25 03:52:27,0.15,1.71,0.00,16.10,20.17,23.67,15.02,50.74,1017.61,2063.98,2923.10,2715.95,3069.77,599.90,610.75,15.50,0000 0000 0000 0000 000000
2016-03-25 03:57:28,0.15,1.72,0.00,16.16,20.20,23.69,14.95,50.61,1017.62,2063.93,2920.19,2713.89,3067.38,599.99,610.64,15.55,0000 0000 0000 0000 000000
2016-03-25 04:02:30,0.11,1.73,0.00,16.20,20.23,23.72,14.91,50.65,1017.63,2063.37,2917.20,2711.79,3065.01,599.84,610.52,15.60,0000 0000 0000 0000 000000
2016-03-25 04:07:31,0.13,1.74,0.00,16.25,20.26,23.74,14.90,50.65,1017.65,2063.11,2914.34,2709.83,3062.71,599.68,610.22,15.65,0000 0000 0000 0000 000000
2016-03-25 04:12:32,0.16,1.74,0.00,16.29,20.29,23.77,15.02,50.78,1017.69,2063.03,2911.41,2707.84,3060.42,600.30,610.80,15.70,0000 0000 0000 0000 000000
2016-03-25 04:17:34,0.16,1.75,0.00,16.31,20.32,23.81,14.93,50.74,1017.72,2063.00,2908.41,2705.81,3058.10,599.62,610.12,15.75,0000 0000 0000 0000 000000
2016-03-25 04:22:35,0.15,1.76,0.00,16.33,20.35,23.82,14.93,50.69,1017.75,2063.00,2905.58,2703.86,3055.83,599.96,610.24,15.80,0000 0000 0000 0000 000000
2016-03-25 04:27:36,0.16,1.77,0.00,16.35,20.38,23.87,14.97,50.71,1017.75,2062.99,2902.63,2701.88,3053.45,600.02,610.42,15.85,0000 0000 0000 0000 000000
2016-03-25 04:32:37,0.16,1.78,0.00,16.38,20.42,23.90,14.88,50.67,1017.82,2062.98,2899.70,2699.84,3051.13,600.00,610.38,15.90,0000 0000 0000 0000 000000
2016-03-25 04:37:39,0.15,1.79,0.00,16.41,20.45,23.93,14.97,50.70,1017.86,2062.96,2896.95,2697.93,3048.92,599.97,610.34,15.96,0000 0000 0000 0000 000000
2016-03-25 04:42:40,0.14,1.79,0.00,16.42,20.48,23.95,14.93,50.57,1018.05,2062.83,2894.05,2695.93,3046.60,599.79,610.34,16.01,0000 0000 0000 0000 000000
2016-03-25 04:47:41,0.13,1.80,0.00,16.45,20.51,23.97,14.94,50.62,1018.07,2062.45,2891.21,2693.93,3044.30,599.88,610.23,16.06,0000 0000 0000 0000 000000
2016-03-25 04:52:42,0.13,1.81,0.00,16.48,20.54,24.02,14.94,50.72,1018.05,2062.16,2888.36,2692.02,3042.08,600.03,610.36,16.11,0000 0000 0000 0000 000000
2016-03-25 04:57:43,0.15,1.81,0.00,16.52,20.57,24.04,15.06,50.82,1017.97,2062.03,2885.43,2689.97,3039.73,600.22,610.39,16.16,0000 0000 0000 0000 000000
2016-03-25 05:02:44,0.16,1.82,0.00,16.56,20.60,24.06,14.87,50.75,1017.92,2062.02,2882.61,2688.06,3037.38,599.69,609.69,16.21,0000 0000 0000 0000 000000
2016-03-25 05:07:46,0.16,1.83,0.00,16.59,20.63,24.09,14.91,50.77,1017.94,2062.00,2879.74,2686.13,3035.08,600.12,610.14,16.26,0000 0000 0000 0000 000000
2016-03-25 05:12:47,0.16,1.84,0.00,16.60,20.65,24.12,14.96,50.76,1017.84,2061.99,2876.93,2684.12,3032.75,600.20,610.18,16.31,0000 0000 0000 0000 000000
2016-03-25 05:17:48,0.16,1.85,0.00,16.63,20.68,24.18,14.89,50.71,1017.83,2061.98,2874.04,2682.18,3030.47,599.77,609.66,16.36,0000 0000 0000 0000 000000
2016-03-25 05:22:49,0.16,1.85,0.00,16.64,20.71,24.20,14.97,50.73,1017.85,2061.96,2871.10,2680.20,3028.23,600.23,609.95,16.41,0000 0000 0000 0000 000000
2016-03-25 05:27:50,0.14,1.86,0.00,16.68,20.73,24.23,14.93,50.67,1017.70,2061.79,2868.25,2678.21,3025.92,600.03,609.79,16.46,0000 0000 0000 0000 000000
2016-03-25 05:32:52,0.09,1.87,0.00,16.71,20.76,24.26,14.90,50.73,1017.64,2061.31,2865.49,2676.33,3023.68,599.68,609.23,16.51,0000 0000 0000 0000 000000
2016-03-25 05:37:53,0.14,1.87,0.00,16.72,20.79,24.27,14.92,50.77,1017.68,2061.12,2862.70,2674.42,3021.48,600.08,609.59,16.56,0000 0000 0000 0000 000000
2016-03-25 05:42:54,0.16,1.88,0.00,16.75,20.81,24.29,14.92,50.72,1017.84,2061.02,2859.89,2672.44,3019.20,599.93,609.51,16.61,0000 0000 0000 0000 000000
2016-03-25 05:47:55,0.16,1.89,0.00,16.77,20.84,24.34,14.84,50.61,1017.94,2061.01,2857.06,2670.52,3016.93,599.63,609.29,16.66,0000 0000 0000 0000 000000
2016-03-25 05:52:57,0.16,1.90,0.00,16.78,20.86,24.37,14.89,50.61,1018.06,2061.00,2854.16,2668.53,3014.58,600.24,609.94,16.71,0000 0000 0000 0000 000000
2016-03-25 05:57:58,0.16,1.91,0.00,16.80,20.89,24.41,14.93,50.80,1018.04,2060.99,2851.30,2666.54,3012.32,600.05,609.62,16.76,0000 0000 0000 0000 000000
2016-03-25 06:02:59,0.16,1.91,0.00,16.79,20.92,24.43,14.96,50.77,1018.05,2060.98,2848.52,2664.65,3010.18,600.20,609.91,16.81,0000 0000 0000 0000 000000
2016-03-25 06:08:01,0.16,1.92,0.00,16.82,20.94,24.46,14.93,50.80,1018.07,2060.97,2845.71,2662.76,3008.01,600.09,609.54,16.86,0000 0000 0000 0000 000000
2016-03-25 06:13:02,0.15,1.93,0.00,16.84,20.97,24.47,14.97,50.77,1018.07,2060.91,2842.95,2660.87,3005.90,600.12,609.68,16.91,0000 0000 0000 0000 000000
2016-03-25 06:18:04,0.10,1.94,0.00,16.83,20.99,24.48,14.97,50.72,1018.08,2060.46,2840.19,2658.95,3003.69,600.13,609.73,16.96,0000 0000 0000 0000 000000
2016-03-25 08:19:28,-3333.30,0.00,0.00,12.82,17.65,14.80,12.99,43.59,1017.26,1867.94,3294.84,2891.89,3284.45,523.73,539.22,0.01,0000 0000 0000 0000 000000
2016-03-25 08:24:29,0.00,0.00,0.00,12.75,17.29,16.13,14.96,48.96,1017.59,2073.95,3651.82,3207.62,3643.66,600.32,618.31,0.06,0000 0000 0000 0000 000000
2016-03-25 08:29:30,0.03,0.01,0.00,12.75,17.00,16.78,14.86,48.63,1017.60,2074.41,3648.14,3205.75,3641.50,599.83,617.85,0.11,0000 0000 0000 0000 000000
2016-03-25 08:34:31,0.07,0.02,0.00,12.78,16.75,17.37,14.92,48.51,1017.81,2075.19,3645.15,3204.27,3639.74,599.86,617.92,0.16,0000 0000 0000 0000 000000
2016-03-25 08:39:33,0.12,0.03,0.00,12.83,16.56,17.93,14.98,48.49,1018.06,2075.97,3642.09,3202.76,3638.00,599.80,617.91,0.21,0000 0000 0000 0000 000000
2016-03-25 08:44:34,0.17,0.04,0.00,12.91,16.41,18.42,14.96,48.42,1018.08,2076.77,3638.98,3201.21,3636.10,599.85,617.79,0.26,0000 0000 0000 0000 000000
2016-03-25 08:49:35,0.16,0.04,0.00,13.01,16.31,18.70,15.03,48.28,1018.11,2077.20,3635.82,3199.47,3634.09,600.04,617.79,0.31,0000 0000 0000 0000 000000
2016-03-25 08:54:36,0.18,0.05,0.00,13.10,16.25,18.89,14.97,48.21,1018.32,2077.94,3632.48,3197.71,3631.84,599.63,617.24,0.36,0000 0000 0000 0000 000000
2016-03-25 08:59:38,0.14,0.06,0.00,13.17,16.22,19.06,15.01,48.26,1018.52,2078.03,3628.89,3195.63,3629.42,600.01,617.63,0.41,0000 0000 0000 0000 000000
2016-03-25 09:04:39,0.22,0.07,0.00,13.28,16.23,19.22,15.01,48.12,1018.57,2078.56,3624.96,3193.30,3626.65,599.84,617.27,0.46,0000 0000 0000 0000 000000
2016-03-25 09:09:40,0.17,0.08,0.00,13.39,16.26,19.45,15.05,48.14,1018.57,2078.94,3621.13,3190.90,3623.88,600.17,617.39,0.51,0000 0000 0000 0000 000000
2016-03-25 09:14:42,0.15,0.09,0.00,13.48,16.31,19.68,15.00,47.98,1018.57,2078.99,3617.29,3188.40,3620.94,599.78,616.78,0.56,0000 0000 0000 0000 000000
2016-03-25 09:19:43,0.16,0.10,0.00,13.57,16.38,19.85,15.01,47.98,1018.59,2078.98,3613.35,3185.82,3617.94,600.00,616.80,0.61,0000 0000 0000 0000 000000
2016-03-25 09:24:44,0.18,0.11,0.00,13.69,16.46,20.04,14.93,47.85,1018.64,2078.96,3609.16,3183.04,3614.64,599.93,616.53,0.66,0000 0000 0000 0000 000000
2016-03-25 09:29:45,0.14,0.12,0.00,13.78,16.56,20.23,15.05,47.78,1018.82,2078.62,3604.80,3180.07,3611.15,599.92,616.44,0.71,0000 0000 0000 0000 000000
2016-03-25 09:34:47,0.15,0.12,0.00,13.93,16.67,20.39,15.00,47.76,1018.98,2078.10,3600.32,3176.99,3607.60,599.70,615.96,0.76,0000 0000 0000 0000 000000
2016-03-25 09:39:48,0.19,0.13,0.00,14.00,16.78,20.57,14.90,47.60,1019.06,2078.00,3595.94,3173.90,3603.94,599.73,615.95,0.81,0000 0000 0000 0000 000000
2016-03-25 09:44:49,0.16,0.14,0.00,14.14,16.90,20.75,15.00,47.65,1019.06,2077.81,3591.46,3170.77,3600.31,600.13,616.03,0.86,0000 0000 0000 0000 000000
2016-03-25 09:49:51,0.14,0.15,0.00,14.25,17.03,20.94,14.95,47.43,1019.06,2077.18,3587.02,3167.73,3596.74,599.96,615.61,0.91,0000 0000 0000 0000 000000
2016-03-25 09:54:52,0.19,0.16,0.00,14.35,17.16,21.12,14.99,47.41,1019.06,2076.99,3582.64,3164.48,3592.98,600.16,615.47,0.96,0000 0000 0000 0000 000000
2016-03-25 09:59:53,0.13,0.17,0.00,14.37,17.29,21.32,14.91,47.35,1019.09,2076.36,3578.19,3161.21,3589.10,599.37,614.79,1.01,0000 0000 0000 0000 000000
2016-03-25 10:04:55,0.19,0.17,0.00,14.40,17.43,21.49,14.99,47.36,1019.24,2076.00,3573.49,3157.90,3585.39,600.12,615.59,1.06,0000 0000 0000 0000 000000
2016-03-25 10:09:56,0.14,0.18,0.00,14.46,17.57,21.68,14.94,47.30,1019.50,2075.61,3568.91,3154.62,3581.73,599.60,615.11,1.11,0000 0000 0000 0000 000000
2016-03-25 10:14:57,0.17,0.19,0.00,14.49,17.70,21.86,15.07,47.43,1019.54,2075.02,3564.40,3151.41,3577.99,600.15,615.60,1.16,0000 0000 0000 0000 000000
2016-03-25 10:19:58,0.15,0.20,0.00,14.59,17.84,22.00,14.98,47.28,1019.55,2074.68,3559.67,3148.10,3574.13,600.06,615.27,1.21,0000 0000 0000 0000 000000
2016-03-25 10:25:00,0.17,0.21,0.00,14.60,17.98,22.17,15.01,47.22,1019.55,2074.03,3555.01,3144.80,3570.29,599.66,614.82,1.26,0000 0000 0000 0000 000000
2016-03-25 10:30:01,0.17,0.22,0.00,14.63,18.11,22.31,14.97,47.17,1019.55,2073.75,3550.28,3141.47,3566.46,599.77,614.85,1.31,0000 0000 0000 0000 000000
2016-03-25 10:35:03,0.16,0.22,0.00,14.67,18.24,22.45,14.97,47.15,1019.55,2073.04,3545.67,3138.18,3562.61,599.52,614.60,1.36,0000 0000 0000 0000 000000
2016-03-25 10:40:04,0.17,0.23,0.00,14.64,18.37,22.59,14.97,47.17,1019.58,2072.79,3541.21,3135.04,3558.82,599.63,614.75,1.41,0000 0000 0000 0000 000000
2016-03-25 10:45:05,0.14,0.24,0.00,14.70,18.50,22.73,15.10,47.21,1019.60,2072.05,3536.66,3131.89,3555.03,600.07,615.09,1.46,0000 0000 0000 0000 000000
2016-03-25 10:50:06,0.16,0.25,0.00,14.70,18.61,22.75,15.00,47.15,1019.59,2071.72,3532.08,3128.65,3551.23,600.05,615.12,1.51,0000 0000 0000 0000 000000
2016-03-25 10:55:07,0.16,0.26,0.00,14.80,18.73,22.70,15.01,47.14,1019.61,2071.04,3527.58,3125.45,3547.44,599.79,614.58,1.56,0000 0000 0000 0000 000000
2016-03-25 11:00:09,0.17,0.27,0.00,14.82,18.85,22.78,14.97,47.11,1019.61,2070.85,3523.13,3122.28,3543.73,599.94,614.70,1.61,0000 0000 0000 0000 000000
2016-03-25 11:05:10,0.13,0.27,0.00,14.85,18.96,22.89,15.01,47.08,1019.59,2070.12,3518.81,3119.15,3540.02,600.19,614.89,1.66,0000 0000 0000 0000 000000
2016-03-25 11:10:11,0.19,0.28,0.00,14.85,19.06,23.00,15.03,47.16,1019.58,2069.94,3514.42,3115.93,3536.35,600.01,614.76,1.71,0000 0000 0000 0000 000000
2016-03-25 11:15:13,0.11,0.29,0.00,14.82,19.16,23.12,15.02,47.05,1019.58,2069.23,3510.08,3112.91,3532.79,599.84,614.55,1.76,0000 0000 0000 0000 000000
2016-03-25 11:20:14,0.19,0.30,0.00,14.81,19.26,23.32,15.02,47.12,1019.63,2069.00,3505.63,3109.85,3529.20,600.18,614.99,1.81,0000 0000 0000 0000 000000
2016-03-25 11:25:15,0.16,0.31,0.00,14.81,19.35,23.51,15.02,47.07,1019.69,2068.79,3501.36,3106.78,3525.65,599.95,614.79,1.86,0000 0000 0000 0000 000000
2016-03-25 11:30:16,0.13,0.31,0.00,14.76,19.43,23.70,15.09,47.13,1019.80,2068.09,3497.10,3103.83,3522.20,599.88,614.84,1.91,0000 0000 0000 0000 000000
2016-03-25 11:35:17,0.19,0.32,0.00,14.81,19.52,23.89,15.00,47.08,1019.81,2067.99,3492.83,3100.78,3518.81,599.54,614.39,1.96,0000 0000 0000 0000 000000
2016-03-25 11:40:19,0.15,0.33,0.00,14.80,19.59,23.99,15.09,47.08,1019.84,2067.68,3488.50,3097.79,3515.36,600.03,614.99,2.01,0000 0000 0000 0000 000000
2016-03-25 11:45:20,0.14,0.34,0.00,14.80,19.67,24.10,15.09,47.03,1019.82,2067.08,3484.38,3094.93,3511.96,600.08,615.03,2.06,0000 0000 0000 0000 000000
2016-03-25 11:50:21,0.18,0.35,0.00,14.83,19.74,24.18,15.03,46.96,1019.67,2066.99,3480.08,3091.99,3508.62,599.96,614.79,2.11,0000 0000 0000 0000 000000
2016-03-25 11:55:22,0.17,0.36,0.00,14.81,19.80,24.25,15.08,46.98,1019.65,2066.84,3475.89,3089.10,3505.22,599.74,614.49,2.16,0000 0000 0000 0000 000000
2016-03-25 12:00:24,0.12,0.36,0.00,14.86,19.86,24.29,15.05,46.99,1019.60,2066.18,3471.69,3086.22,3501.87,599.91,614.57,2.21,0000 0000 0000 0000 000000
2016-03-25 12:05:25,0.18,0.37,0.00,14.82,19.92,24.34,15.06,47.10,1019.59,2066.01,3467.57,3083.40,3498.64,599.85,614.60,2.26,0000 0000 0000 0000 000000
2016-03-25 12:10:26,0.18,0.38,0.00,14.88,19.97,24.34,15.05,47.01,1019.63,2066.00,3463.52,3080.59,3495.36,599.72,614.41,2.31,0000 0000 0000 0000 000000
2016-03-25 12:15:27,0.17,0.39,0.00,14.83,20.03,24.33,15.18,47.02,1019.68,2065.90,3459.36,3077.71,3492.01,600.18,615.06,2.37,0000 0000 0000 0000 000000
2016-03-25 12:20:28,0.12,0.40,0.00,14.85,20.08,24.24,15.04,46.97,1019.84,2065.29,3455.35,3074.93,3488.76,600.00,614.78,2.42,0000 0000 0000 0000 000000
2016-03-25 12:25:30,0.16,0.41,0.00,14.90,20.13,24.27,15.09,46.96,1019.86,2065.02,3451.56,3072.21,3485.46,599.92,614.68,2.47,0000 0000 0000 0000 000000
2016-03-25 12:30:31,0.17,0.41,0.00,14.91,20.17,24.31,15.12,46.98,1019.76,2064.99,3447.64,3069.61,3482.27,600.19,614.74,2.52,0000 0000 0000 0000 000000
2016-03-25 12:35:32,0.17,0.42,0.00,14.89,20.21,24.35,15.12,47.13,1019.73,2064.96,3443.73,3066.98,3479.19,599.76,614.47,2.57,0000 0000 0000 0000 000000
2016-03-25 12:40:34,0.12,0.43,0.00,14.89,20.25,24.39,15.10,46.94,1019.78,2064.56,3439.90,3064.30,3475.99,599.84,614.54,2.62,0000 0000 0000 0000 000000
2016-03-25 12:45:35,0.15,0.44,0.00,14.89,20.28,24.46,15.15,47.02,1019.78,2064.07,3435.81,3061.59,3472.95,600.08,614.84,2.67,0000 0000 0000 0000 000000
2016-03-25 12:50:36,0.17,0.45,0.00,14.91,20.32,24.44,15.06,46.95,1019.67,2064.01,3431.85,3058.92,3469.82,599.75,614.42,2.72,0000 0000 0000 0000 000000
2016-03-25 12:55:38,0.17,0.45,0.00,14.91,20.35,24.44,15.11,47.01,1019.61,2064.00,3427.97,3056.31,3466.81,599.91,614.51,2.77,0000 0000 0000 0000 000000
2016-03-25 13:00:39,0.18,0.46,0.00,14.89,20.38,24.42,15.09,47.05,1019.62,2063.98,3424.00,3053.62,3463.71,600.09,614.72,2.82,0000 0000 0000 0000 000000
2016-03-25 13:05:40,0.17,0.47,0.00,14.89,20.40,24.48,15.09,47.01,1019.63,2063.95,3420.10,3050.97,3460.57,599.88,614.50,2.87,0000 0000 0000 0000 000000
2016-03-25 13:10:42,0.14,0.48,0.00,14.87,20.43,24.41,15.07,47.02,1019.57,2063.76,3416.22,3048.36,3457.59,600.04,614.63,2.92,0000 0000 0000 0000 000000
2016-03-25 13:15:43,0.12,0.49,0.00,14.87,20.46,24.43,15.10,47.06,1019.57,2063.38,3412.57,3045.88,3454.69,599.94,614.58,2.97,0000 0000 0000 0000 000000
2016-03-25 13:20:44,0.15,0.49,0.00,14.88,20.48,24.46,15.10,46.92,1019.55,2063.04,3408.84,3043.32,3451.66,600.10,614.71,3.02,0000 0000 0000 0000 000000
2016-03-25 13:25:45,0.16,0.50,0.00,14.86,20.51,24.45,15.09,47.08,1019.56,2063.01,3405.02,3040.82,3448.80,599.86,614.58,3.07,0000 0000 0000 0000 000000
2016-03-25 13:30:46,0.17,0.51,0.00,14.88,20.53,24.52,15.06,47.08,1019.55,2063.01,3401.21,3038.23,3445.88,600.00,614.70,3.12,0000 0000 0000 0000 000000
2016-03-25 13:35:48,0.17,0.52,0.00,14.82,20.56,24.56,15.16,47.14,1019.55,2063.00,3397.58,3035.70,3442.91,600.00,614.64,3.17,0000 0000 0000 0000 000000
2016-03-25 13:40:49,0.17,0.53,0.00,14.83,20.57,24.53,15.03,47.03,1019.55,2063.00,3393.95,3033.22,3439.98,599.88,614.59,3.22,0000 0000 0000 0000 000000
2016-03-25 13:45:50,0.16,0.54,0.00,14.83,20.59,24.56,15.15,47.15,1019.55,2062.99,3390.40,3030.78,3437.15,600.31,615.08,3.27,0000 0000 0000 0000 000000
2016-03-25 13:50:52,0.16,0.55,0.00,14.84,20.60,24.55,15.12,47.10,1019.55,2062.97,3386.85,3028.29,3434.22,599.99,614.72,3.32,0000 0000 0000 0000 000000
2016-03-25 13:55:53,0.16,0.55,0.00,14.84,20.62,24.58,15.11,47.08,1019.54,2062.96,3383.20,3025.86,3431.42,600.19,614.83,3.37,0000 0000 0000 0000 000000
2016-03-25 14:00:54,0.14,0.56,0.00,14.82,20.62,24.55,15.13,47.08,1019.50,2062.90,3379.65,3023.51,3428.61,600.04,614.80,3.42,0000 0000 0000 0000 000000
2016-03-25 14:05:55,0.14,0.57,0.00,14.76,20.64,24.58,15.14,47.13,1019.42,2062.71,3376.21,3021.17,3425.91,600.26,615.06,3.47,0000 0000 0000 0000 000000
2016-03-25 14:10:57,0.14,0.58,0.00,14.75,20.64,24.59,15.13,47.05,1019.42,2062.45,3372.81,3018.91,3423.21,600.30,615.06,3.52,0000 0000 0000 0000 000000
2016-03-25 14:15:58,0.14,0.58,0.00,14.75,20.64,24.62,15.13,47.15,1019.36,2062.31,3369.32,3016.63,3420.51,600.17,614.92,3.57,0000 0000 0000 0000 000000
2016-03-25 14:20:59,0.14,0.59,0.00,14.75,20.65,24.61,15.17,47.15,1019.23,2062.09,3365.75,3014.27,3417.76,599.68,614.37,3.62,0000 0000 0000 0000 000000
2016-03-25 14:26:00,0.16,0.60,0.00,14.75,20.65,24.61,15.17,47.13,1019.15,2062.03,3362.21,3011.95,3415.15,600.29,614.92,3.67,0000 0000 0000 0000 000000
2016-03-25 14:31:01,0.16,0.61,0.00,14.79,20.66,24.66,15.10,47.08,1019.11,2062.06,3358.66,3009.65,3412.48,600.18,614.61,3.72,0000 0000 0000 0000 000000
2016-03-25 14:36:02,0.15,0.61,0.00,14.77,20.67,24.64,15.11,46.93,1019.09,2062.03,3355.12,3007.42,3409.77,600.18,614.69,3.77,0000 0000 0000 0000 000000
2016-03-25 14:41:04,0.16,0.62,0.00,14.72,20.67,24.56,15.15,46.99,1019.08,2062.05,3351.68,3005.26,3407.15,600.11,614.78,3.82,0000 0000 0000 0000 000000
2016-03-25 14:46:05,0.16,0.63,0.00,14.69,20.67,24.60,15.18,46.99,1019.10,2062.04,3348.28,3003.01,3404.46,600.14,614.88,3.87,0000 0000 0000 0000 000000
2016-03-25 14:51:06,0.15,0.64,0.00,14.67,20.67,24.59,15.20,47.14,1019.08,2062.03,3344.93,3000.77,3401.82,600.17,614.86,3.92,0000 0000 0000 0000 000000